Time,TemperatureF,DewpointF,PressureIn,WindDirection,WindDirectionDegrees,WindSpeedMPH,WindSpeedGustMPH,Humidity,HourlyPrecipIn,Conditions,Clouds,dailyrainin,SoftwareType,DateUTC
2013-07-09 00:00:00,60.0,52.0,30.34,West,270,0.0,0.0,75,0.00,,,0.00,Rainwise IP-100,2013-07-09 04:00:00,
2013-07-09 00:01:00,60.0,52.0,30.34,West,270,0.0,0.0,75,0.00,,,0.00,Rainwise IP-100,2013-07-09 04:01:00,
2013-07-09 00:06:00,60.0,52.0,30.34,West,270,0.0,0.0,75,0.00,,,0.00,Rainwise IP-100,2013-07-09 04:06:00,
2013-07-09 00:11:00,60.0,52.0,30.34,West,270,0.0,0.0,75,0.00,,,0.00,Rainwise IP-100,2013-07-09 04:11:00,
2013-07-09 00:16:00,60.0,52.0,30.34,West,270,0.0,0.0,75,0.00,,,0.00,Rainwise IP-100,2013-07-09 04:16:00,
2013-07-09 00:21:00,60.0,52.0,30.35,West,270,0.0,0.0,75,0.00,,,0.00,Rainwise IP-100,2013-07-09 04:21:00,
2013-07-09 00:26:00,60.0,52.0,30.35,West,270,0.0,0.0,75,0.00,,,0.00,Rainwise IP-100,2013-07-09 04:26:00,
2013-07-09 00:31:00,60.0,51.0,30.35,West,270,0.0,0.0,74,0.00,,,0.00,Rainwise IP-100,2013-07-09 04:31:00,
2013-07-09 00:36:00,60.0,51.0,30.34,West,270,0.0,0.0,74,0.00,,,0.00,Rainwise IP-100,2013-07-09 04:36:00,
2013-07-09 00:41:00,60.0,51.0,30.34,West,270,0.0,0.0,74,0.00,,,0.00,Rainwise IP-100,2013-07-09 04:41:00,
2013-07-09 00:46:00,60.0,51.0,30.34,West,270,0.0,0.0,74,0.00,,,0.00,Rainwise IP-100,2013-07-09 04:46:00,
2013-07-09 00:50:00,60.0,51.0,30.35,West,270,0.0,0.0,74,0.00,,,0.00,Rainwise IP-100,2013-07-09 04:50:00,
2013-07-09 00:55:00,60.0,51.0,30.35,West,270,0.0,0.0,74,0.00,,,0.00,Rainwise IP-100,2013-07-09 04:55:00,
2013-07-09 01:00:00,60.0,51.0,30.35,West,270,0.0,0.0,74,0.00,,,0.00,Rainwise IP-100,2013-07-09 05:00:00,
2013-07-09 01:05:00,60.0,51.0,30.34,West,270,0.0,0.0,74,0.00,,,0.00,Rainwise IP-100,2013-07-09 05:05:00,
2013-07-09 01:10:00,60.0,51.0,30.34,West,270,0.0,0.0,74,0.00,,,0.00,Rainwise IP-100,2013-07-09 05:10:00,
2013-07-09 01:15:00,60.0,51.0,30.34,West,270,0.0,0.0,74,0.00,,,0.00,Rainwise IP-100,2013-07-09 05:15:00,
2013-07-09 01:20:00,60.0,51.0,30.34,West,270,0.0,0.0,74,0.00,,,0.00,Rainwise IP-100,2013-07-09 05:20:00,
2013-07-09 01:25:00,60.0,51.0,30.34,West,270,0.0,0.0,74,0.00,,,0.00,Rainwise IP-100,2013-07-09 05:25:00,
2013-07-09 01:30:00,60.0,51.0,30.34,West,270,0.0,0.0,74,0.00,,,0.00,Rainwise IP-100,2013-07-09 05:30:00,
2013-07-09 01:35:00,60.0,51.0,30.34,West,270,0.0,0.0,74,0.00,,,0.00,Rainwise IP-100,2013-07-09 05:35:00,
2013-07-09 01:40:00,60.0,51.0,30.34,WNW,292,0.0,0.0,74,0.00,,,0.00,Rainwise IP-100,2013-07-09 05:40:00,
2013-07-09 01:45:00,60.0,51.0,30.34,WNW,292,0.0,0.0,74,0.00,,,0.00,Rainwise IP-100,2013-07-09 05:45:00,
2013-07-09 01:50:00,60.0,51.0,30.35,WNW,292,0.0,0.0,74,0.00,,,0.00,Rainwise IP-100,2013-07-09 05:50:00,
2013-07-09 01:55:00,60.0,51.0,30.35,WNW,292,0.0,0.0,74,0.00,,,0.00,Rainwise IP-100,2013-07-09 05:55:00,
2013-07-09 02:00:00,60.0,51.0,30.35,WNW,292,0.0,0.0,74,0.00,,,0.00,Rainwise IP-100,2013-07-09 06:00:00,
2013-07-09 02:05:00,60.0,51.0,30.35,WNW,292,0.0,0.0,74,0.00,,,0.00,Rainwise IP-100,2013-07-09 06:05:00,
2013-07-09 02:10:00,60.0,51.0,30.35,WNW,292,0.0,0.0,74,0.00,,,0.00,Rainwise IP-100,2013-07-09 06:10:00,
2013-07-09 02:15:00,60.0,51.0,30.35,WNW,292,0.0,0.0,74,0.00,,,0.00,Rainwise IP-100,2013-07-09 06:15:00,
2013-07-09 02:20:00,60.0,51.0,30.35,WNW,292,0.0,0.0,74,0.00,,,0.00,Rainwise IP-100,2013-07-09 06:20:00,
2013-07-09 02:25:00,60.0,51.0,30.35,WNW,292,0.0,0.0,74,0.00,,,0.00,Rainwise IP-100,2013-07-09 06:25:00,
2013-07-09 02:30:00,60.0,51.0,30.35,WNW,292,0.0,0.0,74,0.00,,,0.00,Rainwise IP-100,2013-07-09 06:30:00,
2013-07-09 02:35:00,60.0,51.0,30.35,WNW,292,0.0,0.0,74,0.00,,,0.00,Rainwise IP-100,2013-07-09 06:35:00,
2013-07-09 02:40:00,60.0,51.0,30.34,WNW,292,0.0,0.0,74,0.00,,,0.00,Rainwise IP-100,2013-07-09 06:40:00,
2013-07-09 02:45:00,60.0,51.0,30.34,WNW,292,0.0,0.0,74,0.00,,,0.00,Rainwise IP-100,2013-07-09 06:45:00,
2013-07-09 02:50:00,60.0,51.0,30.34,WNW,292,0.0,0.0,74,0.00,,,0.00,Rainwise IP-100,2013-07-09 06:50:00,
2013-07-09 02:55:00,60.0,51.0,30.34,WNW,292,0.0,0.0,74,0.00,,,0.00,Rainwise IP-100,2013-07-09 06:55:00,
2013-07-09 03:00:00,60.0,51.0,30.34,WNW,292,0.0,0.0,74,0.00,,,0.00,Rainwise IP-100,2013-07-09 07:00:00,
2013-07-09 03:05:00,60.0,51.0,30.34,WNW,292,0.0,0.0,74,0.00,,,0.00,Rainwise IP-100,2013-07-09 07:05:00,
2013-07-09 03:10:00,59.0,50.5,30.34,WNW,292,0.0,0.0,74,0.00,,,0.00,Rainwise IP-100,2013-07-09 07:10:00,
2013-07-09 03:15:00,60.0,52.0,30.34,WNW,292,0.0,0.0,75,0.00,,,0.00,Rainwise IP-100,2013-07-09 07:15:00,
2013-07-09 03:20:00,60.0,51.0,30.34,WNW,292,0.0,0.0,74,0.00,,,0.00,Rainwise IP-100,2013-07-09 07:20:00,
2013-07-09 03:25:00,60.0,51.0,30.34,WNW,292,0.0,0.0,74,0.00,,,0.00,Rainwise IP-100,2013-07-09 07:25:00,
2013-07-09 03:30:00,60.0,51.0,30.34,WNW,292,0.0,0.0,74,0.00,,,0.00,Rainwise IP-100,2013-07-09 07:30:00,
2013-07-09 03:35:00,60.0,51.0,30.34,WNW,292,0.0,0.0,74,0.00,,,0.00,Rainwise IP-100,2013-07-09 07:35:00,
2013-07-09 03:40:00,60.0,51.0,30.34,WNW,292,0.0,0.0,74,0.00,,,0.00,Rainwise IP-100,2013-07-09 07:40:00,
2013-07-09 03:45:00,60.0,51.0,30.34,WNW,292,0.0,0.0,74,0.00,,,0.00,Rainwise IP-100,2013-07-09 07:45:00,
2013-07-09 03:52:00,60.0,51.0,30.34,WNW,292,0.0,0.0,74,0.00,,,0.00,Rainwise IP-100,2013-07-09 07:52:00,
2013-07-09 03:57:00,60.0,51.0,30.34,WNW,292,0.0,0.0,74,0.00,,,0.00,Rainwise IP-100,2013-07-09 07:57:00,
2013-07-09 04:02:00,60.0,51.0,30.34,WNW,292,0.0,0.0,74,0.00,,,0.00,Rainwise IP-100,2013-07-09 08:02:00,
2013-07-09 04:08:00,60.0,52.0,30.34,WNW,292,0.0,0.0,75,0.00,,,0.00,Rainwise IP-100,2013-07-09 08:08:00,
2013-07-09 04:13:00,60.0,52.0,30.34,WNW,292,0.0,0.0,75,0.00,,,0.00,Rainwise IP-100,2013-07-09 08:13:00,
2013-07-09 04:18:00,60.0,52.0,30.34,WNW,292,0.0,0.0,75,0.00,,,0.00,Rainwise IP-100,2013-07-09 08:18:00,
2013-07-09 04:23:00,60.0,52.0,30.34,WNW,292,0.0,0.0,75,0.00,,,0.00,Rainwise IP-100,2013-07-09 08:23:00,
2013-07-09 04:28:00,60.0,52.0,30.34,WNW,292,0.0,0.0,75,0.00,,,0.00,Rainwise IP-100,2013-07-09 08:28:00,
2013-07-09 04:33:00,60.0,52.0,30.34,WNW,292,0.0,0.0,75,0.00,,,0.00,Rainwise IP-100,2013-07-09 08:33:00,
2013-07-09 04:38:00,60.0,52.0,30.35,WNW,292,0.0,0.0,75,0.00,,,0.00,Rainwise IP-100,2013-07-09 08:38:00,
2013-07-09 04:43:00,60.0,52.0,30.34,WNW,292,0.0,0.0,75,0.00,,,0.00,Rainwise IP-100,2013-07-09 08:43:00,
2013-07-09 04:48:00,60.0,52.0,30.35,WNW,292,0.0,0.0,75,0.00,,,0.00,Rainwise IP-100,2013-07-09 08:48:00,
2013-07-09 04:53:00,60.0,52.0,30.35,WNW,292,0.0,0.0,75,0.00,,,0.00,Rainwise IP-100,2013-07-09 08:53:00,
2013-07-09 04:58:00,61.0,53.5,30.35,WNW,292,0.0,0.0,75,0.00,,,0.00,Rainwise IP-100,2013-07-09 08:58:00,
2013-07-09 05:03:00,61.0,53.5,30.35,WNW,292,0.0,0.0,75,0.00,,,0.00,Rainwise IP-100,2013-07-09 09:03:00,
2013-07-09 05:08:00,60.0,52.0,30.35,WNW,292,0.0,0.0,75,0.00,,,0.00,Rainwise IP-100,2013-07-09 09:08:00,
2013-07-09 05:13:00,60.0,52.0,30.35,WNW,292,0.0,0.0,75,0.00,,,0.00,Rainwise IP-100,2013-07-09 09:13:00,
2013-07-09 05:18:00,61.0,53.5,30.35,NNE,22,0.0,0.0,75,0.00,,,0.00,Rainwise IP-100,2013-07-09 09:18:00,
2013-07-09 05:23:00,61.0,53.5,30.35,ENE,67,0.0,0.0,75,0.00,,,0.00,Rainwise IP-100,2013-07-09 09:23:00,
2013-07-09 05:28:00,61.0,53.5,30.36,ENE,67,0.0,0.0,75,0.00,,,0.00,Rainwise IP-100,2013-07-09 09:28:00,
2013-07-09 05:33:00,61.0,53.5,30.36,SE,135,0.0,0.0,75,0.00,,,0.00,Rainwise IP-100,2013-07-09 09:33:00,
2013-07-09 05:38:00,61.0,53.5,30.37,SE,135,0.0,0.0,76,0.00,,,0.00,Rainwise IP-100,2013-07-09 09:38:00,
2013-07-09 05:43:00,61.0,53.5,30.37,SSE,157,0.0,0.0,75,0.00,,,0.00,Rainwise IP-100,2013-07-09 09:43:00,
2013-07-09 05:48:00,61.0,53.5,30.37,South,180,1.0,4.0,75,0.00,,,0.00,Rainwise IP-100,2013-07-09 09:48:00,
2013-07-09 05:53:00,61.0,53.5,30.37,SSE,157,1.0,5.0,75,0.00,,,0.00,Rainwise IP-100,2013-07-09 09:53:00,
2013-07-09 05:58:00,61.0,53.5,30.37,SE,135,0.0,3.0,75,0.00,,,0.00,Rainwise IP-100,2013-07-09 09:58:00,
2013-07-09 06:03:00,61.0,53.5,30.37,SSE,157,0.0,3.0,75,0.00,,,0.00,Rainwise IP-100,2013-07-09 10:03:00,
2013-07-09 06:08:00,61.0,53.5,30.37,SSE,157,0.0,0.0,75,0.00,,,0.00,Rainwise IP-100,2013-07-09 10:08:00,
2013-07-09 06:13:00,61.0,53.5,30.37,SSE,157,0.0,0.0,75,0.00,,,0.00,Rainwise IP-100,2013-07-09 10:13:00,
2013-07-09 06:18:00,60.0,52.0,30.37,SSE,157,0.0,0.0,75,0.00,,,0.00,Rainwise IP-100,2013-07-09 10:18:00,
2013-07-09 06:23:00,60.0,52.0,30.37,SSE,157,0.0,0.0,75,0.00,,,0.00,Rainwise IP-100,2013-07-09 10:23:00,
2013-07-09 06:28:00,60.0,52.0,30.37,South,180,0.0,0.0,75,0.00,,,0.00,Rainwise IP-100,2013-07-09 10:28:00,
2013-07-09 06:33:00,61.0,53.5,30.37,West,270,0.0,0.0,75,0.00,,,0.00,Rainwise IP-100,2013-07-09 10:33:00,
2013-07-09 06:38:00,61.0,53.0,30.37,North,360,0.0,2.0,74,0.00,,,0.00,Rainwise IP-100,2013-07-09 10:38:00,
2013-07-09 06:43:00,61.0,53.5,30.37,North,360,0.0,0.0,75,0.00,,,0.00,Rainwise IP-100,2013-07-09 10:43:00,
2013-07-09 06:48:00,61.0,53.5,30.38,North,360,0.0,0.0,75,0.00,,,0.00,Rainwise IP-100,2013-07-09 10:48:00,
2013-07-09 06:53:00,61.0,53.5,30.38,NNE,22,0.0,0.0,75,0.00,,,0.00,Rainwise IP-100,2013-07-09 10:53:00,
2013-07-09 06:58:00,61.0,53.5,30.38,NE,45,1.0,3.0,75,0.00,,,0.00,Rainwise IP-100,2013-07-09 10:58:00,
2013-07-09 07:03:00,61.0,53.5,30.38,NNE,22,2.0,3.0,75,0.00,,,0.00,Rainwise IP-100,2013-07-09 11:03:00,
2013-07-09 07:08:00,61.0,53.5,30.38,NNW,337,0.0,3.0,75,0.00,,,0.00,Rainwise IP-100,2013-07-09 11:08:00,
2013-07-09 07:13:00,61.0,53.5,30.38,NNW,337,2.0,3.0,75,0.00,,,0.00,Rainwise IP-100,2013-07-09 11:13:00,
2013-07-09 07:18:00,61.0,53.5,30.38,NW,315,3.0,4.0,75,0.00,,,0.00,Rainwise IP-100,2013-07-09 11:18:00,
2013-07-09 07:23:00,61.0,53.5,30.38,NNW,337,2.0,6.0,75,0.00,,,0.00,Rainwise IP-100,2013-07-09 11:23:00,
2013-07-09 07:28:00,61.0,53.5,30.39,NNW,337,4.0,6.0,75,0.00,,,0.00,Rainwise IP-100,2013-07-09 11:28:00,
2013-07-09 07:33:00,61.0,53.5,30.39,NNW,337,3.0,5.0,75,0.00,,,0.00,Rainwise IP-100,2013-07-09 11:33:00,
2013-07-09 07:38:00,61.0,53.5,30.39,NNW,337,3.0,3.0,75,0.00,,,0.00,Rainwise IP-100,2013-07-09 11:38:00,
2013-07-09 07:43:00,61.0,53.5,30.39,NNW,337,0.0,4.0,75,0.00,,,0.00,Rainwise IP-100,2013-07-09 11:43:00,
2013-07-09 07:48:00,62.0,54.0,30.39,NNW,337,0.0,0.0,75,0.00,,,0.00,Rainwise IP-100,2013-07-09 11:48:00,
2013-07-09 07:53:00,62.0,54.0,30.39,ENE,67,0.0,0.0,75,0.00,,,0.00,Rainwise IP-100,2013-07-09 11:53:00,
2013-07-09 07:58:00,62.0,54.0,30.39,ENE,67,6.0,7.0,75,0.00,,,0.00,Rainwise IP-100,2013-07-09 11:58:00,
2013-07-09 08:03:00,62.0,54.0,30.39,ENE,67,5.0,6.0,75,0.00,,,0.00,Rainwise IP-100,2013-07-09 12:03:00,
2013-07-09 08:08:00,62.0,54.0,30.39,East,90,4.0,6.0,75,0.00,,,0.00,Rainwise IP-100,2013-07-09 12:08:00,
2013-07-09 08:13:00,62.0,54.0,30.39,ENE,67,3.0,4.0,75,0.00,,,0.00,Rainwise IP-100,2013-07-09 12:13:00,
2013-07-09 08:18:00,63.0,55.0,30.40,NE,45,0.0,4.0,75,0.00,,,0.00,Rainwise IP-100,2013-07-09 12:18:00,
2013-07-09 08:23:00,63.0,55.0,30.39,NE,45,0.0,1.0,75,0.00,,,0.00,Rainwise IP-100,2013-07-09 12:23:00,
2013-07-09 08:28:00,63.0,55.0,30.40,NE,45,0.0,0.0,75,0.00,,,0.00,Rainwise IP-100,2013-07-09 12:28:00,
2013-07-09 08:33:00,64.0,56.5,30.40,NE,45,0.0,0.0,76,0.00,,,0.00,Rainwise IP-100,2013-07-09 12:33:00,
2013-07-09 08:38:00,64.0,56.5,30.40,NE,45,0.0,0.0,77,0.00,,,0.00,Rainwise IP-100,2013-07-09 12:38:00,
2013-07-09 08:43:00,64.0,56.5,30.40,NE,45,0.0,0.0,77,0.00,,,0.00,Rainwise IP-100,2013-07-09 12:43:00,
2013-07-09 08:48:00,65.0,57.5,30.40,NE,45,0.0,0.0,77,0.00,,,0.00,Rainwise IP-100,2013-07-09 12:48:00,
2013-07-09 08:53:00,65.0,57.5,30.40,SSE,157,5.0,6.0,77,0.00,,,0.00,Rainwise IP-100,2013-07-09 12:53:00,
2013-07-09 08:58:00,64.0,56.5,30.40,SSE,157,0.0,6.0,76,0.00,,,0.00,Rainwise IP-100,2013-07-09 12:58:00,
2013-07-09 09:03:00,63.0,55.0,30.40,ESE,112,6.0,10.0,75,0.00,,,0.00,Rainwise IP-100,2013-07-09 13:03:00,
2013-07-09 09:08:00,62.0,53.5,30.40,ESE,112,7.0,10.0,74,0.00,,,0.00,Rainwise IP-100,2013-07-09 13:08:00,
2013-07-09 09:13:00,62.0,53.5,30.41,ENE,67,6.0,9.0,74,0.00,,,0.00,Rainwise IP-100,2013-07-09 13:13:00,
2013-07-09 09:18:00,62.0,53.5,30.40,East,90,7.0,8.0,74,0.00,,,0.00,Rainwise IP-100,2013-07-09 13:18:00,
2013-07-09 09:23:00,62.0,53.5,30.40,ENE,67,2.0,7.0,74,0.00,,,0.00,Rainwise IP-100,2013-07-09 13:23:00,
2013-07-09 09:28:00,62.0,53.5,30.40,ESE,112,6.0,7.0,74,0.00,,,0.00,Rainwise IP-100,2013-07-09 13:28:00,
2013-07-09 09:33:00,62.0,53.5,30.40,ESE,112,5.0,7.0,74,0.00,,,0.00,Rainwise IP-100,2013-07-09 13:33:00,
2013-07-09 09:38:00,62.0,53.5,30.40,ESE,112,6.0,7.0,74,0.00,,,0.00,Rainwise IP-100,2013-07-09 13:38:00,
2013-07-09 09:43:00,62.0,53.5,30.40,ESE,112,7.0,9.0,74,0.00,,,0.00,Rainwise IP-100,2013-07-09 13:43:00,
2013-07-09 09:48:00,62.0,53.5,30.40,ESE,112,7.0,7.0,74,0.00,,,0.00,Rainwise IP-100,2013-07-09 13:48:00,
2013-07-09 09:53:00,62.0,53.5,30.40,East,90,6.0,8.0,74,0.00,,,0.00,Rainwise IP-100,2013-07-09 13:53:00,
2013-07-09 09:58:00,63.0,54.5,30.40,ESE,112,4.0,6.0,74,0.00,,,0.00,Rainwise IP-100,2013-07-09 13:58:00,
2013-07-09 10:03:00,63.0,54.5,30.40,East,90,4.0,5.0,74,0.00,,,0.00,Rainwise IP-100,2013-07-09 14:03:00,
2013-07-09 10:08:00,63.0,54.5,30.40,ESE,112,5.0,7.0,74,0.00,,,0.00,Rainwise IP-100,2013-07-09 14:08:00,
2013-07-09 10:13:00,63.0,54.5,30.40,SE,135,7.0,8.0,74,0.00,,,0.00,Rainwise IP-100,2013-07-09 14:13:00,
2013-07-09 10:18:00,63.0,54.5,30.40,ESE,112,6.0,9.0,74,0.00,,,0.00,Rainwise IP-100,2013-07-09 14:18:00,
2013-07-09 10:23:00,63.0,54.5,30.40,ESE,112,8.0,9.0,74,0.00,,,0.00,Rainwise IP-100,2013-07-09 14:23:00,
2013-07-09 10:28:00,63.0,54.0,30.40,ESE,112,3.0,8.0,73,0.00,,,0.00,Rainwise IP-100,2013-07-09 14:28:00,
2013-07-09 10:33:00,63.0,54.0,30.40,ESE,112,5.0,6.0,73,0.00,,,0.00,Rainwise IP-100,2013-07-09 14:33:00,
2013-07-09 10:38:00,63.0,54.0,30.40,East,90,4.0,6.0,73,0.00,,,0.00,Rainwise IP-100,2013-07-09 14:38:00,
2013-07-09 10:43:00,63.0,54.5,30.40,East,90,6.0,6.0,74,0.00,,,0.00,Rainwise IP-100,2013-07-09 14:43:00,
2013-07-09 10:48:00,64.0,55.0,30.40,East,90,6.0,7.0,74,0.00,,,0.00,Rainwise IP-100,2013-07-09 14:48:00,
2013-07-09 10:53:00,64.0,55.0,30.40,East,90,4.0,6.0,74,0.00,,,0.00,Rainwise IP-100,2013-07-09 14:53:00,
2013-07-09 10:58:00,64.0,55.0,30.40,ENE,67,4.0,6.0,74,0.00,,,0.00,Rainwise IP-100,2013-07-09 14:58:00,
2013-07-09 11:03:00,65.0,56.5,30.41,ENE,67,5.0,5.0,74,0.00,,,0.00,Rainwise IP-100,2013-07-09 15:03:00,
2013-07-09 11:08:00,65.0,56.5,30.40,ENE,67,0.0,5.0,74,0.00,,,0.00,Rainwise IP-100,2013-07-09 15:08:00,
2013-07-09 11:13:00,65.0,56.5,30.40,East,90,0.0,3.0,74,0.00,,,0.00,Rainwise IP-100,2013-07-09 15:13:00,
2013-07-09 11:18:00,67.0,59.0,30.40,ESE,112,0.0,0.0,75,0.00,,,0.00,Rainwise IP-100,2013-07-09 15:18:00,
2013-07-09 11:23:00,67.0,59.5,30.40,SE,135,4.0,5.0,76,0.00,,,0.00,Rainwise IP-100,2013-07-09 15:23:00,
2013-07-09 11:28:00,67.0,59.5,30.41,SE,135,3.0,5.0,76,0.00,,,0.00,Rainwise IP-100,2013-07-09 15:28:00,
2013-07-09 11:33:00,67.0,59.5,30.41,ESE,112,1.0,4.0,76,0.00,,,0.00,Rainwise IP-100,2013-07-09 15:33:00,
2013-07-09 11:38:00,67.0,60.0,30.41,ENE,67,0.0,3.0,77,0.00,,,0.00,Rainwise IP-100,2013-07-09 15:38:00,
2013-07-09 11:43:00,67.0,60.0,30.41,ENE,67,3.0,5.0,77,0.00,,,0.00,Rainwise IP-100,2013-07-09 15:43:00,
2013-07-09 11:48:00,66.0,58.0,30.41,ENE,67,6.0,7.0,76,0.00,,,0.00,Rainwise IP-100,2013-07-09 15:48:00,
2013-07-09 11:53:00,66.0,57.5,30.41,East,90,1.0,6.0,75,0.00,,,0.00,Rainwise IP-100,2013-07-09 15:53:00,
2013-07-09 11:58:00,66.0,57.5,30.41,ESE,112,5.0,5.0,75,0.00,,,0.00,Rainwise IP-100,2013-07-09 15:58:00,
2013-07-09 12:03:00,65.0,57.0,30.41,ESE,112,4.0,6.0,75,0.00,,,0.00,Rainwise IP-100,2013-07-09 16:03:00,
2013-07-09 12:08:00,65.0,56.5,30.41,ESE,112,5.0,6.0,74,0.00,,,0.00,Rainwise IP-100,2013-07-09 16:08:00,
2013-07-09 12:13:00,65.0,56.5,30.40,ESE,112,5.0,6.0,74,0.00,,,0.00,Rainwise IP-100,2013-07-09 16:13:00,
2013-07-09 12:18:00,65.0,56.5,30.40,ESE,112,4.0,6.0,74,0.00,,,0.00,Rainwise IP-100,2013-07-09 16:18:00,
2013-07-09 12:23:00,65.0,56.5,30.40,East,90,10.0,10.0,74,0.00,,,0.00,Rainwise IP-100,2013-07-09 16:23:00,
2013-07-09 12:28:00,65.0,56.5,30.40,East,90,9.0,10.0,74,0.00,,,0.00,Rainwise IP-100,2013-07-09 16:28:00,
2013-07-09 12:33:00,65.0,56.5,30.40,ESE,112,10.0,11.0,74,0.00,,,0.00,Rainwise IP-100,2013-07-09 16:33:00,
2013-07-09 12:38:00,64.0,55.0,30.41,ESE,112,6.0,11.0,73,0.00,,,0.00,Rainwise IP-100,2013-07-09 16:38:00,
2013-07-09 12:43:00,64.0,54.5,30.41,SE,135,7.0,10.0,72,0.00,,,0.00,Rainwise IP-100,2013-07-09 16:43:00,
2013-07-09 12:48:00,64.0,54.5,30.40,ESE,112,6.0,9.0,72,0.00,,,0.00,Rainwise IP-100,2013-07-09 16:48:00,
2013-07-09 12:53:00,64.0,54.5,30.40,SE,135,6.0,7.0,71,0.00,,,0.00,Rainwise IP-100,2013-07-09 16:53:00,
2013-07-09 12:58:00,64.0,54.5,30.40,SSE,157,6.0,7.0,71,0.00,,,0.00,Rainwise IP-100,2013-07-09 16:58:00,
2013-07-09 13:03:00,64.0,54.5,30.40,SE,135,6.0,6.0,71,0.00,,,0.00,Rainwise IP-100,2013-07-09 17:03:00,
2013-07-09 13:08:00,64.0,54.5,30.40,SE,135,2.0,6.0,71,0.00,,,0.00,Rainwise IP-100,2013-07-09 17:08:00,
2013-07-09 13:13:00,64.0,54.5,30.40,SE,135,5.0,6.0,71,0.00,,,0.00,Rainwise IP-100,2013-07-09 17:13:00,
2013-07-09 13:18:00,64.0,54.5,30.40,SSE,157,4.0,6.0,71,0.00,,,0.00,Rainwise IP-100,2013-07-09 17:18:00,
2013-07-09 13:23:00,64.0,54.5,30.40,SSE,157,4.0,6.0,71,0.00,,,0.00,Rainwise IP-100,2013-07-09 17:23:00,
2013-07-09 13:28:00,64.0,54.5,30.40,SSE,157,4.0,6.0,71,0.00,,,0.00,Rainwise IP-100,2013-07-09 17:28:00,
2013-07-09 13:33:00,64.0,54.5,30.40,SSE,157,5.0,7.0,71,0.00,,,0.00,Rainwise IP-100,2013-07-09 17:33:00,
2013-07-09 13:38:00,64.0,54.5,30.40,SSE,157,5.0,6.0,72,0.00,,,0.00,Rainwise IP-100,2013-07-09 17:38:00,
2013-07-09 13:43:00,64.0,54.5,30.40,SSE,157,4.0,6.0,72,0.00,,,0.00,Rainwise IP-100,2013-07-09 17:43:00,
2013-07-09 13:48:00,65.0,56.0,30.40,SSE,157,5.0,6.0,73,0.00,,,0.00,Rainwise IP-100,2013-07-09 17:48:00,
2013-07-09 13:53:00,65.0,56.0,30.40,SSE,157,2.0,6.0,73,0.00,,,0.00,Rainwise IP-100,2013-07-09 17:53:00,
2013-07-09 13:58:00,65.0,56.0,30.40,SSE,157,3.0,5.0,73,0.00,,,0.00,Rainwise IP-100,2013-07-09 17:58:00,
2013-07-09 14:03:00,65.0,56.0,30.40,SSE,157,3.0,5.0,73,0.00,,,0.00,Rainwise IP-100,2013-07-09 18:03:00,
2013-07-09 14:08:00,65.0,56.5,30.40,ESE,112,5.0,5.0,74,0.00,,,0.00,Rainwise IP-100,2013-07-09 18:08:00,
2013-07-09 14:13:00,65.0,56.5,30.40,East,90,3.0,6.0,74,0.00,,,0.00,Rainwise IP-100,2013-07-09 18:13:00,
2013-07-09 14:18:00,65.0,56.5,30.40,SE,135,3.0,7.0,74,0.00,,,0.00,Rainwise IP-100,2013-07-09 18:18:00,
2013-07-09 14:23:00,65.0,56.5,30.40,SSE,157,5.0,6.0,74,0.00,,,0.00,Rainwise IP-100,2013-07-09 18:23:00,
2013-07-09 14:28:00,65.0,56.5,30.40,SSE,157,5.0,6.0,74,0.00,,,0.00,Rainwise IP-100,2013-07-09 18:28:00,
2013-07-09 14:33:00,65.0,56.5,30.40,SSE,157,5.0,6.0,74,0.00,,,0.00,Rainwise IP-100,2013-07-09 18:33:00,
2013-07-09 14:38:00,64.0,55.0,30.40,SSE,157,4.0,7.0,74,0.00,,,0.00,Rainwise IP-100,2013-07-09 18:38:00,
2013-07-09 14:43:00,64.0,55.0,30.40,SSE,157,3.0,5.0,74,0.00,,,0.00,Rainwise IP-100,2013-07-09 18:43:00,
2013-07-09 14:48:00,65.0,56.5,30.39,SSE,157,5.0,5.0,74,0.00,,,0.00,Rainwise IP-100,2013-07-09 18:48:00,
2013-07-09 14:53:00,65.0,56.5,30.39,SSE,157,2.0,5.0,74,0.00,,,0.00,Rainwise IP-100,2013-07-09 18:53:00,
2013-07-09 14:58:00,64.0,55.0,30.39,SSE,157,6.0,7.0,74,0.00,,,0.00,Rainwise IP-100,2013-07-09 18:58:00,
2013-07-09 15:03:00,64.0,55.0,30.39,SSE,157,3.0,7.0,73,0.00,,,0.00,Rainwise IP-100,2013-07-09 19:03:00,
2013-07-09 15:08:00,64.0,55.0,30.39,SSE,157,4.0,6.0,73,0.00,,,0.00,Rainwise IP-100,2013-07-09 19:08:00,
2013-07-09 15:13:00,64.0,55.0,30.39,SE,135,5.0,7.0,74,0.00,,,0.00,Rainwise IP-100,2013-07-09 19:13:00,
2013-07-09 15:18:00,64.0,55.0,30.39,SSE,157,5.0,6.0,74,0.00,,,0.00,Rainwise IP-100,2013-07-09 19:18:00,
2013-07-09 15:23:00,64.0,55.0,30.39,SSE,157,3.0,7.0,74,0.00,,,0.00,Rainwise IP-100,2013-07-09 19:23:00,
2013-07-09 15:28:00,64.0,55.0,30.39,SSE,157,5.0,7.0,74,0.00,,,0.00,Rainwise IP-100,2013-07-09 19:28:00,
2013-07-09 15:33:00,64.0,55.0,30.39,SSE,157,6.0,7.0,74,0.00,,,0.00,Rainwise IP-100,2013-07-09 19:33:00,
2013-07-09 15:37:00,64.0,55.0,30.38,SSE,157,5.0,7.0,74,0.00,,,0.00,Rainwise IP-100,2013-07-09 19:37:00,
2013-07-09 15:42:00,64.0,55.0,30.38,SSE,157,5.0,6.0,74,0.00,,,0.00,Rainwise IP-100,2013-07-09 19:42:00,
2013-07-09 15:47:00,64.0,55.0,30.38,SSE,157,6.0,7.0,74,0.00,,,0.00,Rainwise IP-100,2013-07-09 19:47:00,
2013-07-09 15:52:00,65.0,56.5,30.38,SSE,157,6.0,8.0,74,0.00,,,0.00,Rainwise IP-100,2013-07-09 19:52:00,
2013-07-09 15:57:00,65.0,56.5,30.38,SE,135,7.0,9.0,74,0.00,,,0.00,Rainwise IP-100,2013-07-09 19:57:00,
2013-07-09 16:02:00,64.0,55.0,30.38,SSE,157,6.0,9.0,74,0.00,,,0.00,Rainwise IP-100,2013-07-09 20:02:00,
2013-07-09 16:07:00,65.0,56.5,30.38,SSE,157,7.0,7.0,74,0.00,,,0.00,Rainwise IP-100,2013-07-09 20:07:00,
2013-07-09 16:12:00,64.0,55.0,30.38,SSE,157,7.0,7.0,73,0.00,,,0.00,Rainwise IP-100,2013-07-09 20:12:00,
2013-07-09 16:17:00,64.0,55.0,30.38,SSE,157,7.0,7.0,73,0.00,,,0.00,Rainwise IP-100,2013-07-09 20:17:00,
2013-07-09 16:22:00,64.0,55.0,30.38,SSE,157,7.0,7.0,73,0.00,,,0.00,Rainwise IP-100,2013-07-09 20:22:00,
2013-07-09 16:27:00,64.0,55.0,30.37,SSE,157,6.0,8.0,73,0.00,,,0.00,Rainwise IP-100,2013-07-09 20:27:00,
2013-07-09 16:32:00,64.0,54.5,30.37,SSE,157,6.0,7.0,72,0.00,,,0.00,Rainwise IP-100,2013-07-09 20:32:00,
2013-07-09 16:37:00,64.0,54.5,30.38,SSE,157,7.0,7.0,72,0.00,,,0.00,Rainwise IP-100,2013-07-09 20:37:00,
2013-07-09 16:42:00,64.0,54.5,30.37,SSE,157,5.0,8.0,72,0.00,,,0.00,Rainwise IP-100,2013-07-09 20:42:00,
2013-07-09 16:47:00,64.0,54.5,30.37,SSE,157,6.0,7.0,72,0.00,,,0.00,Rainwise IP-100,2013-07-09 20:47:00,
2013-07-09 16:52:00,64.0,54.5,30.37,SSE,157,6.0,6.0,72,0.00,,,0.00,Rainwise IP-100,2013-07-09 20:52:00,
2013-07-09 16:57:00,64.0,54.5,30.37,SSE,157,6.0,7.0,72,0.00,,,0.00,Rainwise IP-100,2013-07-09 20:57:00,
2013-07-09 17:02:00,64.0,54.5,30.37,SSE,157,0.0,7.0,72,0.00,,,0.00,Rainwise IP-100,2013-07-09 21:02:00,
2013-07-09 17:07:00,64.0,54.5,30.37,SSE,157,0.0,7.0,72,0.00,,,0.00,Rainwise IP-100,2013-07-09 21:07:00,
2013-07-09 17:12:00,64.0,54.5,30.37,SE,135,9.0,11.0,72,0.00,,,0.00,Rainwise IP-100,2013-07-09 21:12:00,
2013-07-09 17:17:00,64.0,54.5,30.37,SE,135,9.0,10.0,72,0.00,,,0.00,Rainwise IP-100,2013-07-09 21:17:00,
2013-07-09 17:22:00,63.0,54.0,30.38,SE,135,8.0,11.0,72,0.00,,,0.00,Rainwise IP-100,2013-07-09 21:22:00,
2013-07-09 17:27:00,63.0,54.0,30.38,SE,135,7.0,10.0,72,0.00,,,0.00,Rainwise IP-100,2013-07-09 21:27:00,
2013-07-09 17:32:00,63.0,54.0,30.38,SE,135,6.0,9.0,72,0.00,,,0.00,Rainwise IP-100,2013-07-09 21:32:00,
2013-07-09 17:37:00,63.0,54.0,30.38,SE,135,7.0,10.0,72,0.00,,,0.00,Rainwise IP-100,2013-07-09 21:37:00,
2013-07-09 17:42:00,63.0,54.0,30.38,SSE,157,7.0,8.0,72,0.00,,,0.00,Rainwise IP-100,2013-07-09 21:42:00,
2013-07-09 17:47:00,63.0,54.0,30.38,SSE,157,7.0,9.0,72,0.00,,,0.00,Rainwise IP-100,2013-07-09 21:47:00,
2013-07-09 17:52:00,63.0,54.0,30.38,SE,135,7.0,9.0,72,0.00,,,0.00,Rainwise IP-100,2013-07-09 21:52:00,
2013-07-09 17:57:00,63.0,54.0,30.38,SSE,157,7.0,9.0,72,0.00,,,0.00,Rainwise IP-100,2013-07-09 21:57:00,
2013-07-09 18:02:00,63.0,54.0,30.39,SSE,157,9.0,9.0,72,0.00,,,0.00,Rainwise IP-100,2013-07-09 22:02:00,
2013-07-09 18:07:00,63.0,54.0,30.39,SE,135,7.0,9.0,72,0.00,,,0.00,Rainwise IP-100,2013-07-09 22:07:00,
2013-07-09 18:12:00,63.0,54.0,30.38,SSE,157,9.0,9.0,72,0.00,,,0.00,Rainwise IP-100,2013-07-09 22:12:00,
2013-07-09 18:17:00,63.0,54.0,30.38,SSE,157,8.0,12.0,72,0.00,,,0.00,Rainwise IP-100,2013-07-09 22:17:00,
2013-07-09 18:22:00,63.0,54.0,30.39,SE,135,6.0,10.0,72,0.00,,,0.00,Rainwise IP-100,2013-07-09 22:22:00,
2013-07-09 18:27:00,63.0,54.0,30.39,SSE,157,7.0,10.0,72,0.00,,,0.00,Rainwise IP-100,2013-07-09 22:27:00,
2013-07-09 18:32:00,63.0,54.0,30.38,SSE,157,7.0,10.0,72,0.00,,,0.00,Rainwise IP-100,2013-07-09 22:32:00,
2013-07-09 18:37:00,63.0,54.0,30.38,SE,135,10.0,10.0,72,0.00,,,0.00,Rainwise IP-100,2013-07-09 22:37:00,
2013-07-09 18:42:00,63.0,54.0,30.38,SE,135,9.0,11.0,72,0.00,,,0.00,Rainwise IP-100,2013-07-09 22:42:00,
2013-07-09 18:47:00,62.0,53.0,30.38,SSE,157,9.0,12.0,72,0.00,,,0.00,Rainwise IP-100,2013-07-09 22:47:00,
2013-07-09 18:52:00,62.0,53.0,30.39,SSE,157,9.0,11.0,72,0.00,,,0.00,Rainwise IP-100,2013-07-09 22:52:00,
2013-07-09 18:57:00,62.0,53.0,30.39,SE,135,9.0,10.0,72,0.00,,,0.00,Rainwise IP-100,2013-07-09 22:57:00,
2013-07-09 19:02:00,62.0,53.0,30.38,SSE,157,7.0,9.0,72,0.00,,,0.00,Rainwise IP-100,2013-07-09 23:02:00,
2013-07-09 19:07:00,62.0,53.0,30.38,SSE,157,7.0,10.0,72,0.00,,,0.00,Rainwise IP-100,2013-07-09 23:07:00,
2013-07-09 19:12:00,62.0,53.0,30.38,SSE,157,9.0,10.0,72,0.00,,,0.00,Rainwise IP-100,2013-07-09 23:12:00,
2013-07-09 19:17:00,62.0,53.0,30.38,SSE,157,7.0,10.0,72,0.00,,,0.00,Rainwise IP-100,2013-07-09 23:17:00,
2013-07-09 19:22:00,62.0,53.0,30.37,SSE,157,10.0,10.0,72,0.00,,,0.00,Rainwise IP-100,2013-07-09 23:22:00,
2013-07-09 19:27:00,62.0,53.5,30.37,SSE,157,9.0,10.0,73,0.00,,,0.00,Rainwise IP-100,2013-07-09 23:27:00,
2013-07-09 19:32:00,62.0,53.5,30.37,SE,135,7.0,9.0,73,0.00,,,0.00,Rainwise IP-100,2013-07-09 23:32:00,
2013-07-09 19:37:00,62.0,53.5,30.37,SSE,157,7.0,8.0,73,0.00,,,0.00,Rainwise IP-100,2013-07-09 23:37:00,
2013-07-09 19:42:00,62.0,53.5,30.37,SSE,157,6.0,8.0,73,0.00,,,0.00,Rainwise IP-100,2013-07-09 23:42:00,
2013-07-09 19:47:00,62.0,53.5,30.37,SSE,157,7.0,9.0,73,0.00,,,0.00,Rainwise IP-100,2013-07-09 23:47:00,
2013-07-09 19:52:00,62.0,53.5,30.37,SSE,157,6.0,8.0,73,0.00,,,0.00,Rainwise IP-100,2013-07-09 23:52:00,
2013-07-09 19:57:00,62.0,53.5,30.37,SSE,157,2.0,7.0,73,0.00,,,0.00,Rainwise IP-100,2013-07-09 23:57:00,
2013-07-09 20:02:00,62.0,53.5,30.37,SSE,157,6.0,6.0,73,0.00,,,0.00,Rainwise IP-100,2013-07-10 00:02:00,
2013-07-09 20:07:00,62.0,53.5,30.37,SSE,157,4.0,6.0,73,0.00,,,0.00,Rainwise IP-100,2013-07-10 00:07:00,
2013-07-09 20:12:00,62.0,53.5,30.37,SSE,157,3.0,6.0,74,0.00,,,0.00,Rainwise IP-100,2013-07-10 00:12:00,
2013-07-09 20:17:00,62.0,53.5,30.37,SSE,157,7.0,7.0,73,0.00,,,0.00,Rainwise IP-100,2013-07-10 00:17:00,
2013-07-09 20:22:00,62.0,53.5,30.37,SSE,157,4.0,7.0,73,0.00,,,0.00,Rainwise IP-100,2013-07-10 00:22:00,
2013-07-09 20:27:00,62.0,53.5,30.37,SSE,157,4.0,6.0,74,0.00,,,0.00,Rainwise IP-100,2013-07-10 00:27:00,
2013-07-09 20:32:00,62.0,53.5,30.37,SE,135,6.0,7.0,74,0.00,,,0.00,Rainwise IP-100,2013-07-10 00:32:00,
2013-07-09 20:37:00,62.0,53.5,30.37,SSE,157,10.0,10.0,74,0.00,,,0.00,Rainwise IP-100,2013-07-10 00:37:00,
2013-07-09 20:42:00,62.0,53.5,30.37,SSE,157,7.0,10.0,74,0.00,,,0.00,Rainwise IP-100,2013-07-10 00:42:00,
2013-07-09 20:47:00,62.0,53.5,30.37,SSE,157,8.0,10.0,74,0.00,,,0.00,Rainwise IP-100,2013-07-10 00:47:00,
2013-07-09 20:52:00,62.0,53.5,30.37,SSE,157,9.0,11.0,74,0.00,,,0.00,Rainwise IP-100,2013-07-10 00:52:00,
2013-07-09 20:57:00,62.0,53.5,30.37,SSE,157,6.0,10.0,74,0.00,,,0.00,Rainwise IP-100,2013-07-10 00:57:00,
2013-07-09 21:02:00,62.0,53.5,30.38,SSE,157,7.0,9.0,74,0.00,,,0.00,Rainwise IP-100,2013-07-10 01:02:00,
2013-07-09 21:07:00,62.0,53.5,30.38,SSE,157,7.0,9.0,74,0.00,,,0.00,Rainwise IP-100,2013-07-10 01:07:00,
2013-07-09 21:12:00,61.0,53.0,30.37,SE,135,7.0,10.0,74,0.00,,,0.00,Rainwise IP-100,2013-07-10 01:12:00,
2013-07-09 21:17:00,62.0,53.5,30.37,SE,135,9.0,10.0,74,0.00,,,0.00,Rainwise IP-100,2013-07-10 01:17:00,
2013-07-09 21:22:00,62.0,53.5,30.38,SSE,157,6.0,10.0,74,0.00,,,0.00,Rainwise IP-100,2013-07-10 01:22:00,
2013-07-09 21:27:00,62.0,53.5,30.38,SSE,157,9.0,10.0,74,0.00,,,0.00,Rainwise IP-100,2013-07-10 01:27:00,
2013-07-09 21:32:00,62.0,53.5,30.38,SSE,157,7.0,10.0,74,0.00,,,0.00,Rainwise IP-100,2013-07-10 01:32:00,
2013-07-09 21:37:00,62.0,53.5,30.38,SSE,157,7.0,9.0,74,0.00,,,0.00,Rainwise IP-100,2013-07-10 01:37:00,
2013-07-09 21:42:00,62.0,53.5,30.38,SSE,157,5.0,9.0,74,0.00,,,0.00,Rainwise IP-100,2013-07-10 01:42:00,
2013-07-09 21:47:00,62.0,53.5,30.38,SSE,157,6.0,6.0,74,0.00,,,0.00,Rainwise IP-100,2013-07-10 01:47:00,
2013-07-09 21:52:00,62.0,53.5,30.37,SSE,157,4.0,6.0,74,0.00,,,0.00,Rainwise IP-100,2013-07-10 01:52:00,
2013-07-09 21:57:00,62.0,53.5,30.38,SE,135,4.0,6.0,74,0.00,,,0.00,Rainwise IP-100,2013-07-10 01:57:00,
2013-07-09 22:02:00,62.0,53.5,30.37,SSE,157,6.0,7.0,74,0.00,,,0.00,Rainwise IP-100,2013-07-10 02:02:00,
2013-07-09 22:07:00,62.0,53.5,30.37,SSE,157,6.0,7.0,74,0.00,,,0.00,Rainwise IP-100,2013-07-10 02:07:00,
2013-07-09 22:12:00,62.0,53.5,30.37,SSE,157,5.0,7.0,74,0.00,,,0.00,Rainwise IP-100,2013-07-10 02:12:00,
2013-07-09 22:17:00,62.0,53.5,30.37,SE,135,0.0,7.0,74,0.00,,,0.00,Rainwise IP-100,2013-07-10 02:17:00,
2013-07-09 22:22:00,62.0,54.0,30.37,SSE,157,0.0,4.0,75,0.00,,,0.00,Rainwise IP-100,2013-07-10 02:22:00,
2013-07-09 22:27:00,61.0,53.0,30.37,SSE,157,0.0,3.0,74,0.00,,,0.00,Rainwise IP-100,2013-07-10 02:27:00,
2013-07-09 22:32:00,61.0,53.0,30.37,SSE,157,0.0,0.0,74,0.00,,,0.00,Rainwise IP-100,2013-07-10 02:32:00,
2013-07-09 22:37:00,61.0,53.0,30.37,SSE,157,0.0,0.0,74,0.00,,,0.00,Rainwise IP-100,2013-07-10 02:37:00,
2013-07-09 22:42:00,61.0,53.0,30.36,SSW,202,0.0,0.0,74,0.00,,,0.00,Rainwise IP-100,2013-07-10 02:42:00,
2013-07-09 22:47:00,61.0,53.0,30.36,SSW,202,0.0,0.0,74,0.00,,,0.00,Rainwise IP-100,2013-07-10 02:47:00,
2013-07-09 22:52:00,61.0,53.0,30.36,SSW,202,0.0,0.0,74,0.00,,,0.00,Rainwise IP-100,2013-07-10 02:52:00,
2013-07-09 22:57:00,61.0,53.0,30.36,SSW,202,0.0,0.0,74,0.00,,,0.00,Rainwise IP-100,2013-07-10 02:57:00,
2013-07-09 23:02:00,61.0,53.0,30.36,SSW,202,0.0,0.0,74,0.00,,,0.00,Rainwise IP-100,2013-07-10 03:02:00,
2013-07-09 23:07:00,61.0,53.0,30.36,SSW,202,0.0,0.0,74,0.00,,,0.00,Rainwise IP-100,2013-07-10 03:07:00,
2013-07-09 23:12:00,61.0,53.0,30.36,West,270,0.0,2.0,74,0.00,,,0.00,Rainwise IP-100,2013-07-10 03:12:00,
2013-07-09 23:17:00,61.0,53.0,30.36,West,270,0.0,0.0,74,0.00,,,0.00,Rainwise IP-100,2013-07-10 03:17:00,
2013-07-09 23:22:00,61.0,53.0,30.36,West,270,0.0,0.0,74,0.00,,,0.00,Rainwise IP-100,2013-07-10 03:22:00,
2013-07-09 23:27:00,61.0,53.0,30.36,West,270,0.0,1.0,74,0.00,,,0.00,Rainwise IP-100,2013-07-10 03:27:00,
2013-07-09 23:32:00,61.0,53.0,30.36,WNW,292,0.0,3.0,74,0.00,,,0.00,Rainwise IP-100,2013-07-10 03:32:00,
2013-07-09 23:37:00,61.0,53.0,30.36,East,90,0.0,0.0,74,0.00,,,0.00,Rainwise IP-100,2013-07-10 03:37:00,
2013-07-09 23:42:00,61.0,53.0,30.36,East,90,0.0,0.0,74,0.00,,,0.00,Rainwise IP-100,2013-07-10 03:42:00,
2013-07-09 23:47:00,61.0,53.0,30.36,NNW,337,0.0,0.0,74,0.00,,,0.00,Rainwise IP-100,2013-07-10 03:47:00,
2013-07-09 23:52:00,60.0,51.0,30.36,East,90,0.0,0.0,74,0.00,,,0.00,Rainwise IP-100,2013-07-10 03:52:00,
2013-07-09 23:57:00,60.0,51.0,30.36,West,270,0.0,1.0,74,0.00,,,0.00,Rainwise IP-100,2013-07-10 03:57:00,